sat.trackr.live / text

‹ back to catalog

IRNSS-1A

NORAD 39199 · 2013-034A

PAYLOAD ACTIVE UNKNOWN

§ Identity

Operator
Country
IND
Launch date
2013-07-01
Launch site
SRILR
Launch vehicle
Mass (kg)
RCS (m²)
3.48

Purposes: comms, nav

External: N2YO · Heavens-Above · Gunter

§ Orbital elements

Epoch: 2026-09-18T21:38:24.809856Z

Period
1,436.03 min
Inclination
35.9275°
Eccentricity
0.0020137
Mean motion
1.00276500 rev/d
Perigee alt
35,700.4 km
Apogee alt
35,870.2 km
Semi-major
42,163.4 km
B*
0.0000e+0
RAAN
62.5314°
Arg perigee
178.5932°
Mean anomaly
136.3764°
Rev number
4,830

§ Raw data

IRNSS-1A1 39199U 13034A   26261.90167604  .00000081  00000+0  00000+0 0  99992 39199  35.9275  62.5314 0020137 178.5932 136.3764  1.00276500 48309

JSON: /api/v1/satellites/39199 · /tle

For live sub-satellite position, see the globe view (requires WebGL).

§ Visibility from observer

Set your observer location to see the next 7 days of passes ≥ 10°. The values pass through the URL so the page stays shareable.

No JS? Fill the form by hand. The geolocation button needs JavaScript.